CW7520 Weather Reports


Display with metric or nautical units.
time (UTC)temp
F
wind
direction
speed
MPH
gust
MPH
rain 1hr
in
rain 24hr
in
rain mn
in
humidity
%
barometer
mb
20260903020903 61 0 0.0 0.0 0.00 0.00 0.00 73 1012.8
20260903020004 61 0 0.0 0.0 0.00 0.00 0.00 71 1012.5
20260903015408 62 0 0.0 0.0 0.00 0.00 0.00 72 1012.6
20260903014508 62 0 0.0 0.0 0.00 0.00 0.00 73 1012.6
20260903013605 61 0 0.0 0.0 0.00 0.00 0.00 75 1012.9
20260903012708 60 0 0.0 0.0 0.00 0.00 0.00 77 1013.0
20260903011808 59 0 0.0 0.0 0.00 0.00 0.00 78 1013.0
20260903010908 59 0 0.0 0.0 0.00 0.00 0.00 77 1012.9
20260903010213 59 0 0.0 0.0 0.00 0.00 0.00 78 1012.7
20260903005403 58 0 0.0 0.0 0.00 0.00 0.00 80 1012.7
20260903004504 58 0 0.0 0.0 0.00 0.00 0.00 82 1012.7
20260903003608 58 0 0.0 0.0 0.00 0.00 0.00 81 1012.7
20260903002914 58 0 0.0 0.0 0.00 0.00 0.00 81 1012.7
20260903001803 57 0 0.0 0.0 0.00 0.00 0.00 76 1012.6
20260903000903 57 0 0.0 0.0 0.00 0.00 0.00 72 1012.3
20260903000003 57 0 0.0 0.0 0.00 0.00 0.00 71 1012.2
20260902235408 57 0 0.0 0.0 0.00 0.00 0.00 71 1011.9
20260902234713 57 0 0.0 0.0 0.00 0.00 0.00 71 1012.0
20260902233608 57 0 0.0 0.0 0.00 0.00 0.00 70 1012.1
20260902232703 57 0 0.0 0.0 0.00 0.00 0.00 70 1012.1
20260902232013 57 0 0.0 0.0 0.00 0.00 0.00 71 1012.0
20260902230908 56 0 0.0 0.0 0.00 0.00 0.00 71 1011.9
20260902230012 56 0 0.0 0.0 0.00 0.00 0.00 71 1011.9
20260902225403 56 0 0.0 0.0 0.00 0.00 0.00 72 1011.8
20260902224508 55 0 0.0 0.0 0.00 0.00 0.00 72 1011.8
20260902223605 55 0 0.0 0.0 0.00 0.00 0.00 72 1011.9
20260902222708 55 0 0.0 0.0 0.00 0.00 0.00 72 1011.8
20260902221803 54 0 0.0 0.0 0.00 0.00 0.00 73 1011.9
20260902220905 54 0 0.0 0.0 0.00 0.00 0.00 74 1011.8
20260902220004 53 0 0.0 0.0 0.00 0.00 0.00 75 1011.7
20260902215408 53 0 0.0 0.0 0.00 0.00 0.00 75 1011.8
20260902214504 52 0 0.0 0.0 0.00 0.00 0.00 76 1011.6
20260902213605 52 0 0.0 0.0 0.00 0.00 0.00 76 1011.4
20260902212708 51 0 0.0 0.0 0.00 0.00 0.00 76 1011.1
20260902211805 51 0 0.0 0.0 0.00 0.00 0.00 76 1010.8
20260902210905 51 0 0.0 0.0 0.00 0.00 0.00 77 1010.5
20260902210004 50 0 0.0 0.0 0.00 0.00 0.00 78 1010.2
20260902205403 50 0 0.0 0.0 0.00 0.00 0.00 78 1010.1
20260902204505 49 0 0.0 0.0 0.00 0.00 0.00 78 1010.1
20260902203605 49 0 0.0 0.0 0.00 0.00 0.00 78 1010.2
20260902202913 49 0 0.0 0.0 0.00 0.00 0.00 77 1010.2
20260902201805 49 0 0.0 0.0 0.00 0.00 0.00 77 1010.3
20260902200903 49 0 0.0 0.0 0.00 0.00 0.00 77 1010.3
20260902200008 49 0 0.0 0.0 0.00 0.00 0.00 76 1010.2
20260902195404 49 0 0.0 0.0 0.00 0.00 0.00 76 1010.2
20260902194505 49 0 0.0 0.0 0.00 0.00 0.00 76 1010.3
20260902193603 49 0 0.0 0.0 0.00 0.00 0.00 76 1010.3
20260902192703 49 0 0.0 0.0 0.00 0.00 0.00 76 1010.1
20260902192014 49 0 0.0 0.0 0.00 0.00 0.00 76 1010.0
20260902190905 49 0 0.0 0.0 0.00 0.00 0.00 76 1009.9
20260902190214 49 0 0.0 0.0 0.00 0.00 0.00 76 1009.9
20260902185614 49 0 0.0 0.0 0.00 0.00 0.00 76 1009.7
20260902184505 49 0 0.0 0.0 0.00 0.00 0.00 75 1009.7
20260902183605 50 0 0.0 0.0 0.00 0.00 0.00 75 1009.7
20260902182705 50 0 0.0 0.0 0.00 0.00 0.00 75 1009.6
20260902181803 50 0 0.0 0.0 0.00 0.00 0.00 76 1009.7
20260902181113 50 0 0.0 0.0 0.00 0.00 0.00 75 1009.6
20260902180006 50 0 0.0 0.0 0.00 0.00 0.00 76 1009.7
20260902175403 50 0 0.0 0.0 0.00 0.00 0.00 76 1009.7
20260902174505 50 0 0.0 0.0 0.00 0.00 0.00 76 1009.8
20260902173814 50 0 0.0 0.0 0.00 0.00 0.00 75 1009.7
20260902172916 51 0 0.0 0.0 0.00 0.00 0.00 75 1010.0
20260902171805 51 0 0.0 0.0 0.00 0.00 0.00 75 1009.9
20260902170903 51 0 0.0 0.0 0.00 0.00 0.00 75 1010.0
20260902170005 51 0 0.0 0.0 0.00 0.00 0.00 74 1010.0
20260902165403 51 0 0.0 0.0 0.00 0.00 0.00 74 1010.0
20260902164503 52 0 0.0 0.0 0.00 0.00 0.00 73 1010.0
20260902163603 52 0 0.0 0.0 0.00 0.00 0.00 73 1010.3
20260902162913 52 0 0.0 0.0 0.00 0.00 0.00 73 1010.4
20260902161803 52 0 0.0 0.0 0.00 0.00 0.00 73 1010.6
20260902161114 52 0 0.0 0.0 0.00 0.00 0.00 73 1010.6
20260902160010 52 0 0.0 0.0 0.00 0.00 0.00 73 1010.5
20260902155404 52 0 0.0 0.0 0.00 0.00 0.00 73 1010.7
20260902154503 52 0 0.0 0.0 0.00 0.00 0.00 74 1010.7
20260902153605 52 0 0.0 0.0 0.00 0.00 0.00 74 1010.9
20260902152703 52 0 0.0 0.0 0.00 0.00 0.00 75 1011.0
20260902152014 52 0 0.0 0.0 0.00 0.00 0.00 75 1011.0
20260902150903 52 0 0.0 0.0 0.00 0.00 0.00 74 1010.9
20260902150005 52 0 0.0 0.0 0.00 0.00 0.00 74 1010.9
20260902145403 52 0 0.0 0.0 0.00 0.00 0.00 74 1010.8
20260902144504 52 0 0.0 0.0 0.00 0.00 0.00 74 1010.7
20260902143603 52 0 0.0 0.0 0.00 0.00 0.00 74 1010.6
20260902142705 52 0 0.0 0.0 0.00 0.00 0.00 74 1010.8
20260902141805 52 0 0.0 0.0 0.00 0.00 0.00 73 1010.8
20260902140903 52 0 0.0 0.0 0.00 0.00 0.00 73 1010.9
20260902140215 52 0 0.0 0.0 0.00 0.00 0.00 72 1010.9
20260902135614 52 0 0.0 0.0 0.00 0.00 0.00 72 1011.0
20260902134505 52 0 0.0 0.0 0.00 0.00 0.00 72 1011.0
20260902133605 52 0 0.0 0.0 0.00 0.00 0.00 71 1011.1
20260902132703 52 0 0.0 0.0 0.00 0.00 0.00 71 1011.1
20260902131808 53 0 0.0 0.0 0.00 0.00 0.00 71 1011.4
20260902130908 53 0 0.0 0.0 0.00 0.00 0.00 70 1011.5
20260902130010 53 0 0.0 0.0 0.00 0.00 0.00 70 1011.6
20260902125405 53 0 0.0 0.0 0.00 0.00 0.00 69 1011.7
20260902124504 54 0 0.0 0.0 0.00 0.00 0.00 68 1011.7
20260902123605 54 0 0.0 0.0 0.00 0.00 0.00 68 1011.8
20260902122703 54 0 0.0 0.0 0.00 0.00 0.00 68 1011.9
20260902122019 54 0 0.0 0.0 0.00 0.00 0.00 68 1012.0
20260902120908 55 0 0.0 0.0 0.00 0.00 0.00 67 1012.2
20260902120004 55 0 0.0 0.0 0.00 0.00 0.00 67 1012.3
20260902115403 55 0 0.0 0.0 0.00 0.00 0.00 66 1012.3
20260902114508 55 0 0.0 0.0 0.00 0.00 0.00 65 1012.3
20260902113608 55 0 0.0 0.0 0.00 0.00 0.00 64 1012.2
20260902112703 55 0 0.0 0.0 0.00 0.00 0.00 65 1012.2
20260902111803 56 0 0.0 0.0 0.00 0.00 0.00 65 1012.4
20260902111118 56 0 0.0 0.0 0.00 0.00 0.00 65 1012.3
20260902110008 56 0 0.0 0.0 0.00 0.00 0.00 65 1012.3
20260902105408 56 0 0.0 0.0 0.00 0.00 0.00 65 1012.4
20260902104508 57 0 0.0 0.0 0.00 0.00 0.00 64 1012.1
20260902103603 57 0 0.0 0.0 0.00 0.00 0.00 64 1012.0
20260902102713 57 0 0.0 0.0 0.00 0.00 0.00 63 1012.2
20260902101804 58 0 0.0 0.0 0.00 0.00 0.00 64 1012.0
20260902100908 58 0 0.0 0.0 0.00 0.00 0.00 63 1012.0
20260902100008 58 0 0.0 0.0 0.00 0.00 0.00 64 1011.9
20260902095619 58 0 0.0 0.0 0.00 0.00 0.00 64 1011.8
20260902094504 58 0 0.0 0.0 0.00 0.00 0.00 64 1011.7
20260902093603 59 0 0.0 0.0 0.00 0.00 0.00 64 1011.7
20260902092919 59 0 0.0 0.0 0.00 0.00 0.00 64 1011.6
20260902091808 59 0 0.0 0.0 0.00 0.00 0.00 65 1011.4
20260902090903 59 0 0.0 0.0 0.00 0.00 0.00 65 1011.5
20260902090215 59 0 0.0 0.0 0.00 0.00 0.00 65 1011.4
20260902085408 59 0 0.0 0.0 0.00 0.00 0.00 65 1011.4
20260902084503 60 0 0.0 0.0 0.00 0.00 0.00 64 1011.4
20260902083608 60 0 0.0 0.0 0.00 0.00 0.00 63 1011.2
20260902082922 60 0 0.0 0.0 0.00 0.00 0.00 62 1011.2
20260902081803 60 0 0.0 0.0 0.00 0.00 0.00 62 1011.2
20260902080903 61 0 0.0 0.0 0.00 0.00 0.00 61 1011.1
20260902080008 61 0 0.0 0.0 0.00 0.00 0.00 61 1011.1
20260902075408 62 0 0.0 0.0 0.00 0.00 0.00 60 1011.0
20260902074503 62 0 0.0 0.0 0.00 0.00 0.00 60 1011.1
20260902073603 62 0 0.0 0.0 0.00 0.00 0.00 60 1010.9
20260902072703 62 0 0.0 0.0 0.00 0.00 0.00 58 1011.0
20260902071808 63 0 0.0 0.0 0.00 0.00 0.00 58 1011.0
20260902071123 63 0 0.0 0.0 0.00 0.00 0.00 58 1010.9
20260902070008 63 0 0.0 0.0 0.00 0.00 0.00 57 1011.1
20260902065403 63 0 0.0 0.0 0.00 0.00 0.00 57 1011.0
20260902064719 64 0 0.0 0.0 0.00 0.00 0.00 57 1011.0
20260902063604 64 0 0.0 0.0 0.00 0.00 0.00 57 1011.2
20260902062703 64 0 0.0 0.0 0.00 0.00 0.00 57 1011.4
20260902061808 64 0 0.0 0.0 0.00 0.00 0.00 56 1011.4
20260902061118 65 0 0.0 0.0 0.00 0.00 0.00 56 1011.5
20260902060004 65 0 0.0 0.0 0.00 0.00 0.00 56 1011.5
20260902055408 65 0 0.0 0.0 0.00 0.00 0.00 56 1011.5
20260902054714 66 0 0.0 0.0 0.00 0.00 0.00 56 1011.5
20260902053605 65 0 0.0 0.0 0.00 0.00 0.00 57 1011.6
20260902052703 65 0 0.0 0.0 0.00 0.00 0.00 57 1011.7
20260902051803 65 0 0.0 0.0 0.00 0.00 0.00 57 1011.7
20260902050904 65 0 0.0 0.0 0.00 0.00 0.00 56 1011.9
20260902050009 66 0 0.0 0.0 0.00 0.00 0.00 55 1011.8
20260902045404 66 0 0.0 0.0 0.00 0.00 0.00 55 1011.9
20260902044503 67 0 0.0 0.0 0.00 0.00 0.00 54 1011.9
20260902043605 67 0 0.0 0.0 0.00 0.00 0.00 54 1011.9
20260902042705 68 0 0.0 0.0 0.00 0.00 0.00 53 1011.9
20260902041803 68 0 0.0 0.0 0.00 0.00 0.00 53 1012.0
20260902040911 68 0 0.0 0.0 0.00 0.00 0.00 53 1011.9
20260902040003 69 0 0.0 0.0 0.00 0.00 0.00 53 1011.9
20260902035405 69 0 0.0 0.0 0.00 0.00 0.00 52 1012.0
20260902034513 68 0 0.0 0.0 0.00 0.00 0.00 54 1012.2
20260902033823 68 0 0.0 0.0 0.00 0.00 0.00 55 1012.2
20260902032703 67 0 0.0 0.0 0.00 0.00 0.00 55 1012.2
20260902031808 66 0 0.0 0.0 0.00 0.00 0.00 58 1012.5
20260902030903 64 0 0.0 0.0 0.00 0.00 0.00 60 1012.7
20260902030008 64 0 0.0 0.0 0.00 0.00 0.00 60 1012.8
20260902025408 63 0 0.0 0.0 0.00 0.00 0.00 60 1012.9
20260902024503 63 0 0.0 0.0 0.00 0.00 0.00 60 1013.3
20260902023603 63 0 0.0 0.0 0.00 0.00 0.00 60 1013.6
20260902022703 64 0 0.0 0.0 0.00 0.00 0.00 59 1013.7
20260902021805 64 0 0.0 0.0 0.00 0.00 0.00 59 1014.0